TIANTONG-1 2

Last updated on Wed Jul 09 2025 00:02:47 GMT+0000 (Coordinated Universal Time)

1 46916U 20082A 25189.62797678 -.00000338 00000+0 00000+0 0 9998 2 46916 1.4395 300.1103 0000861 164.2407 173.5031 1.00272734 17203
UTC large
Height (km)
Speed (km/s)
/
Latitude / Longitude
Inclination (degrees)
Orbital Period (minutes)
Azimuth
Elevation
Range (km)
Doppler Factor

Next 0 passes for location: London (51.5072 / 0.1276)

Sorry there are no passes over London.